User: anonymous   Login
Location: Bednik
(45.3500°N, 16.3833°E)
Time: 06:00:47
(UTC+00:00)
Language:

SPOT 5 - Orbit

View from above orbital plane
View from above orbital plane
View from above satellite
View from above satellite

Ground track
Ground track

The orbit data is extracted from the following two-line orbital elements,

1 27421U 02021A   20295.72032737  .00000068  00000-0  26111-4 0  9999
2 27421  98.2600   4.6144 0134720 176.9102 183.2970 14.52056418963076
Epoch (UTC): 21 October 2020 17:17:16
Eccentricity: 0.0134720
inclination: 98.2600°
perigee height: 623 km
apogee height: 814 km
right ascension of ascending node: 4.6144°
argument of perigee: 176.9102°
revolutions per day: 14.52056418
mean anomaly at epoch: 183.2970°
orbit number at epoch: 96307

The dashed part of the orbit path shows where the satellite is in the earth's shadow,  

DLR